SERIAL,TIME,MODEL,SN(OPTODE),OXYGEN,SATURATION,TEMPERATURE,CALPHASE,TCPHASE,C1RPH,C2RPH,C1AMP,C2AMP,RAWTEMP,CHECK
2,1312920961,4330,355,198.8061981201172000,60.8189811706543000,13.2584495544433600,34.5334892272949200,36.5567283630371100,39.9667701721191400,3.4100339412689210,755.5100097656250000,680.0360717773438000,413.5302124023437500,14082
2,1312924557,4330,355,198.2203063964843800,60.6188812255859400,13.2430095672607420,34.5769309997558600,36.5991706848144500,39.9722404479980500,3.3730769157409670,756.6912841796875000,680.1862792968750000,414.0263977050781000,46616
2,1312928157,4330,355,198.0709991455078000,60.5687408447265600,13.2396802902221680,34.5876197814941400,36.6096115112304700,40.0003204345703100,3.3907089233398438,756.6364746093750000,680.1762695312500000,414.1333923339844000,47372
2,1312931757,4330,355,199.1826934814453000,60.8631210327148440,13.2061100006103520,34.5363807678222660,36.5595512390136700,39.9355010986328100,3.3759539127349854,755.0797729492188000,680.2993774414062000,415.2119140625000000,3269
2,1312935357,4330,355,198.1217041015625000,60.5316390991210940,13.2006998062133790,34.6036109924316400,36.6252403259277340,40.0085792541503900,3.3833389282226562,756.7147827148438000,680.3286743164062000,415.3857116699219000,29129
2,1312938957,4330,355,197.4407958984375000,60.3207206726074200,13.1985797882080080,34.6469993591308600,36.6676292419433600,40.0506591796875000,3.3830258846282960,757.8187255859375000,680.3386230468750000,415.4538879394531000,46352
2,1312942557,4330,355,199.1336975097656200,60.8447303771972660,13.2035999298095700,34.5405387878418000,36.5636100769043000,39.9402885437011700,3.3766779899597170,755.2241210937500000,680.3007812500000000,415.2927856445312500,5831
2,1312946157,4330,355,198.1598968505859400,60.5410308837890600,13.1990499496459960,34.6028213500976560,36.6244697570800800,40.0070610046386700,3.3825991153717040,756.6502075195312000,680.4221191406250000,415.4389038085937500,48148
2,1312949757,4330,355,198.8582000732422000,60.7376403808593750,13.1866703033447270,34.5663108825683600,36.5887985229492200,39.9630699157714840,3.3742749691009520,755.7844848632812000,680.4296264648438000,415.8364868164062500,8714
2,1312953357,4330,355,200.8715057373047000,61.3755798339843750,13.2034902572631840,34.4360198974609400,36.4614906311035160,39.8345489501953100,3.3730549812316895,752.4827270507812000,680.4459228515625000,415.2961120605469000,27779
2,1312956957,4330,355,199.9268951416015600,61.1025810241699200,13.2149496078491210,34.4873199462890600,36.5116195678710940,39.8905906677246100,3.3789749145507812,753.7465820312500000,680.2462768554688000,414.9278869628906000,64328
2,1312960557,4330,355,198.6916046142578000,60.7246398925781250,13.2146596908569340,34.5622100830078100,36.5847892761230500,39.9558296203613300,3.3710401058197020,755.7844848632812000,680.2777709960938000,414.9371948242187500,30993
2,1312964157,4330,355,197.7203979492187500,60.4215507507324200,13.2100200653076170,34.6241798400878900,36.6453285217285160,40.0179100036621100,3.3725810050964355,757.3989868164062000,680.2556152343750000,415.0863037109375000,43098
2,1312967757,4330,355,198.2830963134765600,60.5880508422851560,13.2059898376464840,34.5914802551269500,36.6133918762207000,39.9784507751464840,3.3650670051574707,756.5131225585938000,680.2958984375000000,415.2157897949219000,56853
2,1312971357,4330,355,197.3018951416015600,60.2882194519043000,13.2059602737426760,34.6511001586914060,36.6716308593750000,40.0199394226074200,3.3483119010925293,758.1231079101562000,680.2957763671875000,415.2168884277344000,30996
2,1312974957,4330,355,196.3320007324218800,59.9922714233398440,13.2062797546386720,34.7113990783691400,36.7305488586425800,40.0766906738281250,3.3461461067199707,759.6937866210938000,680.2677001953125000,415.2065124511719000,19486
2,1312978557,4330,355,199.8435974121093800,61.0668792724609400,13.2074298858642580,34.4960708618164060,36.5201606750488300,39.8793296813964840,3.3591690063476562,753.8427734375000000,680.2124023437500000,415.1695861816406000,65172
2,1312982157,4330,355,199.6154022216797000,61.0289688110351560,13.2308197021484380,34.4979209899902340,36.5219802856445300,39.8787689208984400,3.3567891120910645,753.9290771484375000,680.0999145507812000,414.4180908203125000,5481
2,1312985757,4330,355,196.9510955810547000,60.2016601562500000,13.2213401794433600,34.6650085449218750,36.6852302551269500,40.0524711608886700,3.3672490119934080,758.2465209960938000,680.0360717773438000,414.7226867675781000,48710
2,1312989357,4330,355,196.9252014160156200,60.1825981140136700,13.2130298614501950,34.6709594726562500,36.6910285949707000,40.0589408874511700,3.3679120540618896,758.3939819335938000,680.0960083007812000,414.9895935058594000,15933
2,1312992957,4330,355,196.2257995605468800,59.9618186950683600,13.2077503204345700,34.7170295715332000,36.7360496520996100,40.0954399108886700,3.3593978881835938,759.6035766601562000,680.1328735351562000,415.1593017578125000,23967
2,1312996557,4330,355,197.5131988525390600,60.3542709350585940,13.2070598602294920,34.6382789611816400,36.6591110229492200,40.0284309387207000,3.3693161010742188,757.5349731445312000,680.1378173828125000,415.1814880371094000,43204
2,1313000157,4330,355,196.9365997314453000,60.1780090332031250,13.2070302963256840,34.6733703613281250,36.6933898925781250,40.0486488342285160,3.3552548885345460,758.4439697265625000,680.1301879882812000,415.1823120117187500,44747
2,1313003757,4330,355,196.6790924072265600,60.0918884277343750,13.2014904022216800,34.6917304992675800,36.7113304138183600,40.0785713195800800,3.3672330379486084,758.9105834960938000,680.1926269531250000,415.3604125976562500,51846
2,1313007357,4330,355,199.7079010009765600,61.0189590454101560,13.2026996612548830,34.5067596435546900,36.5306205749511700,39.8982810974121100,3.3676679134368896,753.8554077148438000,680.1425781250000000,415.3214111328125000,62204
2,1313010957,4330,355,199.5234985351562500,60.9711303710937500,13.2089595794677730,34.5141601562500000,36.5378417968750000,39.9009704589843750,3.3631289005279540,754.1962280273438000,680.0952758789062000,415.1205139160156000,52664
2,1313014557,4330,355,198.1015014648437500,60.5517196655273440,13.2201700210571290,34.5951881408691400,36.6170082092285160,39.9795112609863300,3.3624949455261230,756.2410278320312000,679.9760742187500000,414.7603149414062500,22535
2,1313018157,4330,355,197.4752960205078000,60.3604393005371100,13.2202901840209960,34.6335411071777340,36.6544799804687500,40.0072212219238300,3.3527369499206543,757.2197875976562000,679.9456176757812000,414.7565002441406000,43674
2,1313021757,4330,355,196.5218048095703000,60.0687408447265600,13.2200803756713870,34.6922607421875000,36.7118492126464840,40.0799713134765600,3.3681259155273438,758.7728881835938000,679.9526977539062000,414.7633056640625000,6540
2,1313025357,4330,355,196.9687957763672000,60.1865386962890600,13.2060403823852540,34.6718101501464840,36.6918716430664060,40.0542907714843750,3.3624188899993896,758.3167114257812000,680.0255737304688000,415.2142028808594000,22392
2,1313028957,4330,355,196.4615020751953000,60.0264511108398440,13.2022399902343750,34.7048988342285160,36.7242012023925800,40.0825195312500000,3.3583219051361084,759.0662231445312000,680.0496215820312000,415.3363037109375000,37438
2,1313032557,4330,355,195.8648071289062500,59.8409805297851560,13.1998901367187500,34.7431716918945300,36.7615890502929700,40.1155700683593750,3.3539810180664062,760.0925292968750000,680.0612182617188000,415.4118041992187500,45748
2,1313036157,4330,355,196.5791931152343800,60.0553588867187500,13.1969995498657230,34.7006797790527340,36.7200698852539060,40.0873908996582000,3.3673169612884520,758.8619995117188000,680.0609741210938000,415.5047912597656000,46913
2,1313039757,4330,355,196.5711975097656200,60.0526313781738300,13.1967697143554690,34.7010192871093750,36.7204093933105500,40.0741004943847660,3.3536911010742188,758.8980712890625000,680.0844116210938000,415.5120849609375000,64230
2,1313043357,4330,355,199.6394958496093800,60.9933509826660160,13.1992502212524410,34.5123100280761700,36.5360298156738300,39.8869781494140600,3.3509449958801270,753.9409179687500000,679.9970092773438000,415.4321899414062500,55772
2,1313046957,4330,355,197.0225982666015600,60.1956291198730500,13.2005500793457030,34.6711311340332000,36.6912002563476560,40.0441894531250000,3.3529889583587646,758.0598754882812000,679.9926147460938000,415.3905029296875000,40996
2,1313050557,4330,355,197.5088043212890600,60.3493385314941400,13.2044000625610350,34.6395606994628900,36.6603507995605500,40.0097503662109400,3.3493959903717040,757.3201904296875000,679.9149169921875000,415.2669067382812500,1833
2,1313054157,4330,355,196.7895050048828000,60.1211204528808600,13.1981096267700200,34.6870918273925800,36.7067909240722660,40.0625000000000000,3.3557050228118896,758.3768920898438000,679.9509277343750000,415.4689941406250000,11504
2,1313057757,4330,355,200.1468963623047000,61.1477699279785160,13.1988000869750980,34.4821586608886700,36.5065803527832000,39.8619804382324200,3.3554079532623290,753.0897827148438000,679.9915161132812000,415.4468078613281000,2909
2,1313061357,4330,355,200.1779937744140600,61.1726684570312500,13.2100801467895500,34.4743118286132800,36.4989089965820300,39.8478507995605500,3.3489460945129395,752.8795166015625000,679.8098144531250000,415.0845947265625000,17425
2,1313064957,4330,355,199.2584991455078000,60.9079818725585940,13.2221202850341800,34.5236091613769500,36.5470695495605500,39.9000205993652340,3.3529510498046875,754.0573120117188000,679.6928100585938000,414.6978149414062500,28365
2,1313068557,4330,355,197.8657989501953000,60.5086593627929700,13.2416801452636720,34.5992012023925800,36.6209297180175800,39.9614410400390600,3.3405148983001710,756.2546997070312000,679.5867919921875000,414.0693054199219000,23426
2,1313072157,4330,355,196.1923065185547000,59.9750213623046900,13.2253198623657230,34.7102508544921900,36.7294197082519500,40.0888481140136700,3.3594279289245605,759.1204223632812000,679.7379150390625000,414.5946960449219000,65366
2,1313075757,4330,355,196.7053070068359400,60.1228408813476560,13.2186098098754880,34.6814804077148440,36.7013206481933600,40.0647087097168000,3.3633959293365480,758.3355712890625000,679.7871093750000000,414.8103942871094000,52713
2,1313079357,4330,355,197.8199005126953000,60.4387207031250000,13.2002000808715820,34.6227989196777340,36.6439781188964840,39.9942512512207000,3.3502659797668457,756.7161254882812000,679.8684082031250000,415.4017028808594000,64705
2,1313082957,4330,355,199.4974975585937500,60.9486198425293000,13.1982402801513670,34.5213699340820300,36.5448799133300800,39.8795509338378900,3.3346629142761230,754.0089111328125000,679.8621215820312000,415.4648132324219000,51023
2,1313086557,4330,355,198.4409027099609400,60.6329116821289060,13.2034902572631840,34.5828590393066400,36.6049613952636700,39.9457893371582000,3.3408279418945312,755.6176147460938000,679.8281860351562000,415.2962951660156000,53473
2,1313090157,4330,355,198.8885955810547000,60.7746505737304700,13.2071599960327150,34.5543098449707000,36.5770683288574200,39.9250602722168000,3.3479919433593750,755.0004272460938000,679.7816162109375000,415.1784057617187500,35752
2,1313093757,4330,355,196.7673950195312500,60.1210098266601560,13.2030601501464840,34.6856384277343750,36.7053794860839840,40.0511894226074200,3.3458099365234375,758.4074096679688000,679.8513793945312000,415.3100891113281000,47035
2,1313097357,4330,355,196.2895050048828000,59.9661903381347660,13.1964902877807620,34.7184906005859400,36.7374801635742200,40.0854911804199200,3.3480150699615480,759.2280883789062000,679.9348144531250000,415.5210876464844000,35627
2,1313100957,4330,355,197.7357025146484400,60.4081802368164060,13.1966104507446290,34.6296195983886700,36.6506385803222660,39.9950103759765600,3.3443679809570312,756.8917236328125000,679.8798828125000000,415.5170898437500000,58041
2,1313104557,4330,355,198.9573059082031200,60.7921218872070300,13.2045097351074220,34.5509681701660160,36.5738105773925800,39.9204292297363300,3.3466188907623290,754.7379760742188000,679.7932128906250000,415.2633056640625000,26982
2,1313108157,4330,355,198.2041931152343800,60.5655708312988300,13.2071895599365230,34.5956192016601560,36.6174201965332000,39.9755401611328100,3.3581159114837646,755.9467163085938000,679.7111816406250000,415.1773071289062500,55059
2,1313111757,4330,355,196.3690032958984400,60.0059204101562500,13.2080297470092770,34.7081604003906250,36.7273788452148440,40.0806884765625000,3.3533101081848145,758.8283081054688000,679.7230834960938000,415.1502990722656000,3971
2,1313115357,4330,355,199.0270996093750000,60.8187789916992200,13.2084598541259770,34.5449295043945300,36.5679016113281250,39.9141693115234400,3.3462679386138916,754.4696044921875000,679.7009277343750000,415.1365966796875000,19088
2,1313118957,4330,355,198.5014953613281200,60.6738395690918000,13.2200698852539060,34.5706291198730500,36.5930099487304700,39.9435615539550800,3.3505480289459230,755.1181030273438000,679.5473022460938000,414.7636108398437500,23596
2,1313122557,4330,355,197.1976928710937500,60.2753906250000000,13.2201099395751950,34.6508789062500000,36.6714210510253900,40.0282897949218750,3.3568730354309080,757.2990722656250000,679.5380249023438000,414.7622070312500000,36654
2,1313126157,4330,355,197.3211059570312500,60.3129501342773440,13.2199897766113280,34.6427688598632800,36.6635017395019500,40.0209808349609400,3.3574829101562500,756.9603881835938000,679.5103149414062000,414.7658996582031000,43565
2,1313129757,4330,355,196.2973937988281200,59.9998703002929700,13.2198696136474610,34.7060317993164060,36.7252998352050800,40.0801391601562500,3.3548359870910645,758.8043823242188000,679.5748901367188000,414.7698974609375000,27245
2,1313133357,4330,355,196.5547943115234400,60.0724601745605500,13.2153396606445310,34.6929092407226560,36.7124786376953100,40.0729103088378900,3.3604280948638916,758.3126220703125000,679.5792236328125000,414.9155883789062500,22901
2,1313136957,4330,355,195.9237976074218800,59.8711204528808600,13.2089395523071290,34.7347106933593750,36.7533187866210940,40.1134910583496100,3.3601760864257812,759.3922729492188000,679.6068725585938000,415.1210937500000000,485
2,1313140557,4330,355,194.8441925048828000,59.5385818481445300,13.2069597244262700,34.8025703430175800,36.8196296691894500,40.1761283874511700,3.3565061092376710,761.2905883789062000,679.6165161132812000,415.1846008300781000,22008
2,1313144157,4330,355,195.7532958984375000,59.8118515014648440,13.2035799026489260,34.7484588623046900,36.7667503356933600,40.1130714416503900,3.3463129997253420,759.9268188476562000,679.7465820312500000,415.2933044433594000,9835
2,1313147757,4330,355,195.7335968017578000,59.8031311035156250,13.2015695571899410,34.7505798339843750,36.7688293457031250,40.1142692565918000,3.3454439640045166,759.9542236328125000,679.7258911132812000,415.3580017089844000,30775
2,1313151357,4330,355,196.1963043212890600,59.9390296936035160,13.1974897384643550,34.7238006591796900,36.7426605224609400,40.0895996093750000,3.3469390869140625,759.1417236328125000,679.7028198242188000,415.4891052246094000,31105
2,1313154957,4330,355,195.9539947509765600,59.8575592041015600,13.1918897628784180,34.7417106628418000,36.7601585388183600,40.1060791015625000,3.3459169864654540,759.5952758789062000,679.7421875000000000,415.6689147949219000,14455
2,1313158557,4330,355,200.0299987792968800,61.1042709350585940,13.1930704116821290,34.4916801452636700,36.5158805847168000,39.8633689880371100,3.3474879264831543,752.9550781250000000,679.6696166992188000,415.6307983398437500,59907
2,1313162157,4330,355,200.2276000976562500,61.1723785400390600,13.1987600326538090,34.4773597717285160,36.5018806457519500,39.8515014648437500,3.3496170043945312,752.6160888671875000,679.6105957031250000,415.4482116699219000,16324
2,1313165757,4330,355,198.8937988281250000,60.7786903381347660,13.2089500427246100,34.5523605346679700,36.5751609802246100,39.9300804138183600,3.3549189567565920,754.4816284179688000,679.4666748046875000,415.1207885742187500,14209
2,1313169357,4330,355,199.2375946044922000,60.8919792175293000,13.2150096893310550,34.5289192199707000,36.5522613525390600,39.8910713195800800,3.3388059139251710,753.9221801757812000,679.4489746093750000,414.9259948730469000,47212
2,1313172957,4330,355,199.0877990722656200,60.8550605773925800,13.2215595245361330,34.5349082946777340,36.5581092834472660,39.9070892333984400,3.3489758968353270,754.0996093750000000,679.3911132812500000,414.7156982421875000,16479
2,1313176557,4330,355,199.1304931640625000,60.8727188110351560,13.2249402999877930,34.5305290222168000,36.5538406372070300,39.8941688537597660,3.3403239250183105,753.8054809570312000,679.3012695312500000,414.6072082519531000,35337
2,1313180157,4330,355,197.2727050781250000,60.3082885742187500,13.2275295257568360,34.6422309875488300,36.6629714965820300,40.0101890563964840,3.3472208976745605,756.9155883789062000,679.2805786132812000,414.5238037109375000,42304
2,1313183757,4330,355,197.1394958496093800,60.2589988708496100,13.2211503982543950,34.6535110473632800,36.6739883422851560,40.0142097473144500,3.3402180671691895,757.1979980468750000,679.3430786132812000,414.7287902832031000,24376
2,1313187357,4330,355,196.5740966796875000,60.0735816955566400,13.2117500305175780,34.6932487487793000,36.7128105163574200,40.0553016662597660,3.3424839973449707,758.1964721679688000,679.3676147460938000,415.0309143066406000,12532
2,1313190957,4330,355,195.9190979003906200,59.8724708557128900,13.2110395431518550,34.7341003417968750,36.7527198791503900,40.0911712646484400,3.3384480476379395,759.2260131835938000,679.3988037109375000,415.0534973144531000,20635
2,1313194557,4330,355,194.4389953613281200,59.4189491271972660,13.2101297378540040,34.8269500732421900,36.8434410095214840,40.1863403320312500,3.3428959846496580,761.6328735351562000,679.3756103515625000,415.0827941894531000,17529
2,1313198157,4330,355,196.2691040039062500,59.9722290039062500,13.2056598663330080,34.7152595520019500,36.7343101501464840,40.0851097106933600,3.3508000373840330,758.5140991210938000,679.4288940429688000,415.2265014648437500,42334
2,1313201757,4330,355,196.7429046630859400,60.1065483093261700,13.1978702545166020,34.6899108886718750,36.7095489501953100,40.0539093017578100,3.3443601131439210,757.9578857421875000,679.4296875000000000,415.4765930175781000,20196
2,1313205357,4330,355,197.2877044677734400,60.2617988586425800,13.1895599365234380,34.6604804992675800,36.6807899475097660,40.0345306396484400,3.3537371158599854,757.1430053710938000,679.4771728515625000,415.7437133789062500,7141
2,1313208957,4330,355,198.6408996582031200,60.6748504638671900,13.1893396377563480,34.5778083801269500,36.6000289916992200,39.9438591003418000,3.3438339233398438,755.0438232421875000,679.5159912109375000,415.7507019042969000,10649
2,1313212557,4330,355,199.2462005615234400,60.8699607849121100,13.1968603134155270,34.5374603271484400,36.5606117248535160,39.8982696533203100,3.3376619815826416,753.9647216796875000,679.3912963867188000,415.5091857910156000,4487
2,1313216157,4330,355,199.6696929931640600,61.0520706176757800,13.2356300354003900,34.4923896789550800,36.5165710449218750,39.8630485534668000,3.3464810848236084,752.9564208984375000,679.1926269531250000,414.2636108398437500,53187
2,1313219757,4330,355,198.6304016113281200,60.7427597045898440,13.2418899536132810,34.5524711608886700,36.5752716064453100,39.9293708801269500,3.3540949821472170,754.3806152343750000,679.1505737304688000,414.0622863769531000,54744
2,1313223357,4330,355,197.6022949218750000,60.4524002075195300,13.2597398757934570,34.6064796447753900,36.6280403137207000,39.9839897155761700,3.3559489250183105,755.8438110351562000,679.0106201171875000,413.4890136718750000,12836
2,1313226957,4330,355,195.6925048828125000,59.8525810241699200,13.2480602264404300,34.7293090820312500,36.7480392456054700,40.0973701477050800,3.3493270874023438,759.0972900390625000,679.0866088867188000,413.8642883300781000,52540
2,1313230557,4330,355,195.1499023437500000,59.6823005676269500,13.2448101043701170,34.7645301818847660,36.7824592590332000,40.1261596679687500,3.3437039852142334,759.9384765625000000,678.9982299804688000,413.9685058593750000,59843
2,1313234157,4330,355,195.2704010009765600,59.7140388488769500,13.2409696578979500,34.7594718933105500,36.7775115966796900,40.1229705810546900,3.3454589843750000,759.8203125000000000,679.0878295898438000,414.0920104980469000,1087
2,1313237757,4330,355,197.8215026855468800,60.4522094726562500,13.2098503112792970,34.6173400878906250,36.6386489868164060,39.9926795959472660,3.3540270328521730,755.8139038085938000,679.1915893554688000,415.0917968750000000,9584
2,1313241357,4330,355,196.5451965332031200,60.0557708740234400,13.2050600051879880,34.6983108520507800,36.7177581787109400,40.0552787780761700,3.3375239372253420,758.0039062500000000,679.2089843750000000,415.2459106445312500,42053
2,1313245014,4330,355,199.1510925292968800,60.8479194641113300,13.2020101547241210,34.5402984619140600,36.5633888244628900,39.9140014648437500,3.3506159782409670,753.7100219726562000,678.9547729492188000,415.3435974121094000,50734
2,1313245451,4330,355,200.2120056152343800,61.1969108581543000,13.2202396392822270,34.4671783447265600,36.4919395446777340,39.8439216613769500,3.3519740104675293,751.9954223632812000,679.1221923828125000,414.7580871582031000,28997
2,1313245670,4330,355,199.7837982177734400,61.0920715332031250,13.2393598556518550,34.4835510253906250,36.5079307556152340,39.8622016906738300,3.3542630672454834,752.3883056640625000,678.9760131835938000,414.1435852050781000,19428
2,1313245878,4330,355,199.3489990234375000,60.9879112243652340,13.2605495452880860,34.4988899230957000,36.5229187011718750,39.8716583251953100,3.3487401008605957,752.9168701171875000,678.8302001953125000,413.4627075195312500,29407
2,1313246099,4330,355,199.2720947265625000,60.9619903564453100,13.2587900161743160,34.5047988891601560,36.5286903381347660,39.8817596435546900,3.3530650138854980,753.2199707031250000,678.8994750976562000,413.5194091796875000,22061
2,1313246320,4330,355,199.4304962158203000,61.0054702758789060,13.2551202774047850,34.4967803955078100,36.5208702087402340,39.8748588562011700,3.3539960384368896,752.9918823242188000,678.9503173828125000,413.6375122070312500,311
2,1313246539,4330,355,198.6354064941406200,60.8045310974121100,13.2863798141479500,34.5297393798828100,36.5530586242675800,39.9087982177734400,3.3557360172271730,753.9193115234375000,678.7598876953125000,412.6328125000000000,55290
2,1313246771,4330,355,198.7196960449218800,60.8272781372070300,13.2841100692749020,34.5256309509277340,36.5490493774414060,39.9012298583984400,3.3521800041198730,753.9094848632812000,678.7982788085938000,412.7056884765625000,45405
2,1313246992,4330,355,198.3643035888672000,60.7386589050293000,13.2990503311157230,34.5398292541503900,36.5629196166992200,39.9119300842285160,3.3490068912506104,754.4050292968750000,678.7338256835938000,412.2255859375000000,16285
2,1313247224,4330,355,198.1040039062500000,60.6781501770019500,13.3132295608520500,34.5486488342285160,36.5715408325195300,39.9194488525390600,3.3479080200195312,754.7061157226562000,678.6785888671875000,411.7698059082031000,41347
2,1313247454,4330,355,198.0635986328125000,60.6600685119628900,13.3090200424194340,34.5527000427246100,36.5754890441894500,39.9294700622558600,3.3539810180664062,754.8726196289062000,678.7352294921875000,411.9049987792969000,55674
2,1313247686,4330,355,197.9263000488281200,60.6308784484863300,13.3185300827026370,34.5565681457519500,36.5792808532714840,39.9342308044433600,3.3549580574035645,755.1359252929688000,678.8200073242188000,411.5993957519531000,21538
2,1313247918,4330,355,197.4333038330078000,60.5124893188476560,13.3427801132202150,34.5744400024414060,36.5967407226562500,39.9484901428222660,3.3517460823059080,755.5756225585938000,678.5493164062500000,410.8200073242187500,12652